User: anonymous
Location: Albany
(35.0000°S, 118.0000°E)
Time: 01:51:35
(UTC-04:00)
Language:

Cosmos 1758 Rocket - Orbit

View from above orbital plane
View from above orbital plane
View from above satellite
View from above satellite

Ground track
Ground track

The orbit data is extracted from the following two-line orbital elements,

1 16792U 86046B   14109.34040787  .00000821  00000-0  98703-4 0  4411
2 16792 082.4853 208.6699 0025912 132.9656 285.6205 14.82525043503738
Epoch (UTC): 19 April 2014 08:10:11
Eccentricity: 0.0025912
inclination: 82.4853°
perigee height: 603 km
apogee height: 639 km
right ascension of ascending node: 208.6699°
argument of perigee: 132.9656°
revolutions per day: 14.82525043
mean anomaly at epoch: 285.6205°
orbit number at epoch: 50373

The dashed part of the orbit path shows where the satellite is in the earth's shadow,  

DLR